Midland International Airport Midland US
ICAO: KMAF
IATA: MAF
Category: Medium
Scheduled Services: Yes

Elevation: 2871 ft
TransAlt. 18000 ft.

Airport Communications:
APP/DEP:121.1
ATIS:126.8
CLNC DEL:118.05
CTAF:118.7
GND:121.9
SAN ANGELO RDO:122.6
TWR:118.7
UNICOM:122.95

KMAF Zoom In..

If you have problems with the map follow the link
https://www.worldairports.se/pages/airport.php?
ICAO=KMAF

Runways:

(A) RW 04 length 4605 ft width 75 ft
---- / hdg 45

(B) RW 10 length 8302 ft width 150 ft
ILS 110.30 / hdg 105

(C) RW 16L length 4247 ft width 100 ft
---- / hdg 168

(D) RW 16R length 9501 ft width 150 ft
---- / hdg 166

(E) RW 22 length 4605 ft width 75 ft
---- / hdg 225

(F) RW 28 length 8302 ft width 150 ft
---- / hdg 285

(G) RW 34L length 9501 ft width 150 ft
---- / hdg 346

(H) RW 34R length 4247 ft width 100 ft
---- / hdg 348

Location; KMAF
Day. 19 / Time. 21.53 Zulu
* Altimeter: 29.85
* Temperature: 31° c. 87.8°f.
* Wind from: 140° Speed 08 kn with Gusts up to 21 kn.
Dewpoint: 07° c.
Visibility: 10 Statute Miles.
Clouds: Clear (automated report).

KMAF 192153Z 14008G21KT 10SM CLR 31/07 A2985 RMK AO2 SLP069 T03060072


Wind From 140°
Speed 08 kn.

 
 
jpsmedia.com for Web Design worldairports.se 2019   terms of use